Regional Weather Roundup
Issued by NWS

Home | Current Version | Previous Version | Graphics & Text | Print | Product List | Glossary On
Versions: 1 2 3 4 5 6 7 8 9 10 11 12 13 14 15 16 17 18 19 20 21 22 23 24 25 26 27 28 29 30 31 32 33 34 35 36 37 38 39 40 41 42 43 44 45 46 47 48 49 50
000
ASUS44 KMEG 030200
RWRTN
TENNESSEE HOURLY STATE WEATHER ROUNDUP
NATIONAL WEATHER SERVICE MEMPHIS TN
800 PM CST FRI DEC 02 2016

TNZ002-004-019-021-049-052-054-088>092-030300-
WEST TENNESSEE

CITY           SKY/WX    TMP DP  RH WIND       PRES   REMARKS
MEMPHIS INTL   CLOUDY    51  36  56 CALM      30.28S
NWS MEMPHIS      N/A     47 N/A N/A MISG        N/A
JACKSON        PTCLDY    39  35  86 CALM      30.29R
DYERSBURG      CLOUDY   N/A N/A N/A E5        30.30R
UNION CITY     CLEAR     41  30  65 CALM      30.30R
PARIS          CLEAR     37  28  70 CALM      30.31R
$$

TNZ008-025-027-028-033-062-065-066-030300-
NORTH MIDDLE TENNESSEE

CITY           SKY/WX    TMP DP  RH WIND       PRES   REMARKS
NASHVILLE      CLEAR     44  27  51 NW3       30.31R
CLARKSVILLE    PTCLDY    40  28  62 N6        30.31R
SMYRNA         PTCLDY    40  32  73 W3        30.31R
CROSSVILLE     PTCLDY    41  27  57 W5        30.27R
$$

TNZ061-075-076-078-094-096-097-030300-
SOUTH MIDDLE TENNESSEE

CITY           SKY/WX    TMP DP  RH WIND       PRES   REMARKS
TULLAHOMA      CLEAR     39  30  70 CALM      30.27S
WINCHESTER     CLEAR     41  34  75 CALM      30.28R
SHELBYVILLE    CLEAR     41  37  87 CALM      30.30S
$$

TNZ017-018-042-046-047-030300-
NORTHEAST TENNESSEE

CITY           SKY/WX    TMP DP  RH WIND       PRES   REMARKS
TRI CITIES     PTCLDY    37  27  67 SW3       30.23R
$$

TNZ012-013-036-069-073-074-030300-
CENTRAL EAST TENNESSEE

CITY           SKY/WX    TMP DP  RH WIND       PRES   REMARKS
KNOXVILLE      MOCLDY    44  31  60 CALM      30.25S
OAK RIDGE      PTCLDY    44  30  57 CALM      30.27S
GATLINBURG     CLEAR     36  30  80 CALM      30.25S
$$

TNZ083-085-099-030300-
SOUTHEAST TENNESSEE

CITY           SKY/WX    TMP DP  RH WIND       PRES   REMARKS
CHATTANOOGA    PTCLDY    45  34  65 CALM      30.27S
$$

SKY/WX REPORTED AS FAIR MEANS FEW OR NO CLOUDS BELOW
12 THOUSAND FEET.





USA.gov is the U.S. government's official web portal to all federal, state and local government web resources and services.